CAPE
1754 1263 1071 315 235 52 54 345 1626 1242 1559 1542 1283 849 1375 1342 495 656 429 1113 1576 1506 745 977 1262 1639 1644 1715 1786 1925 886 2038 1389 1444 1930 1834 1920 1409 1783 1350 1374 1443 1448
1230 1627 1252 1864 1681 506 652 206 1944 1411 1639 1284 928 1165 1119 1212 1350 861 378 650 1113 1010 525 89 410 1107 1467 1665 1765 1929 1413 1932 2103 1393 1808 1980 1978 1748 1805 1663 1146 1195 1450
1908 1481 2066 2169 1757 934 443 418 1910 1506 1534 588 1094 1306 1857 1336 895 791 1082 689 124 106 172 924 837 987 1303 1413 1698 2011 1569 2078 2030 2043 1651 1775 2085 1938 1934 2030 1803 1797 1383
1848 1305 1125 2068 1553 440 394 388 2310 2038 1248 1394 1220 2041 2424 2002 1713 1560 1014 1021 615 181 485 1063 1678 1368 1625 1681 1850 1993 2269 2540 2297 2172 2313 1843 1994 1946 1888 1639 1580 1766 1917
1806 1719 1110 2466 1613 719 1517 665 2241 1502 1721 614 758 2694 1523 2607 1998 1943 1567 1125 1159 572 549 1148 1474 1921 1328 1397 1822 2080 2088 2398 2687 2485 2487 2518 2222 2151 2131 2063 1806 1893 1959
998 2474 1816 2457 1743 1646 775 1630 1574 1932 1636 761 898 1453 1934 1763 2186 2363 1831 1549 1183 932 782 1070 682 631 1613 1278 2051 2392 2058 2177 2337 2464 2789 2875 2770 2269 2252 2235 2215 2133 2131
1117 2206 2801 2292 1664 1406 1211 1883 1452 1748 1998 1811 2209 858 1069 1673 1815 1854 1544 1846 1296 1074 760 1051 899 744 841 1604 1859 2333 2306 2398 2254 2436 2815 2581 2724 2652 2634 2383 2175 2118 2063
2241 2017 1807 2072 1941 2050 1763 1619 1668 1819 2336 1884 1649 909 1845 1923 2086 2059 1215 1513 1658 1033 991 966 949 1375 1023 830 738 1981 2372 2389 2589 2604 2716 2737 2385 2411 2422 2359 2308 2177 2047
1670 1663 1468 2280 1408 1499 2125 1111 1644 1508 2395 2120 1447 1756 918 1177 1379 2269 1571 1337 2231 1193 1191 1088 855 942 1081 1115 1394 1421 2014 1941 2356 2637 2841 2773 2675 2510 2363 2225 2097 2166 2279
1325 967 1722 1573 1526 1320 1977 1407 971 1420 1570 1758 669 1969 1163 1534 1776 2035 1853 1466 1574 1431 1606 1357 989 1031 1180 1087 1294 1608 1595 1312 1695 2141 2549 2734 2743 2726 2677 2465 2141 1897 1910
825 1004 1596 1760 1754 2077 2579 2100 1048 1297 1157 1715 1518 2470 1703 2374 1742 1471 1982 2550 1646 1829 1516 1576 1246 1037 994 807 699 768 1493 1315 1317 1545 1788 2210 2709 2982 2988 2835 2574 2281 2095
931 2114 1444 1821 1965 2007 1837 1186 1939 1355 1606 1365 2793 1816 2473 1281 968 2458 1496 1565 980 1785 1766 1475 1520 1532 1152 1344 1318 1526 1440 1290 1275 1375 1543 1704 2175 2598 2810 2937 2966 2970 2830
1719 2474 2411 2325 1765 1689 1734 1926 1649 2393 1760 1502 1341 1567 2168 1815 2006 1615 1712 1868 1462 1707 1667 1377 1496 1816 1599 1860 1686 1604 1941 1089 844 828 993 1108 1363 1686 2082 2447 2689 2766 2795
1556 1658 1869 2004 1884 1811 1750 2224 2537 1827 1956 1656 1777 1859 1824 1580 2096 1034 1256 1649 1771 1565 2099 1774 2022 1850 2294 2136 2460 2012 1727 845 818 628 487 481 637 820 1077 1329 1527 1725 1943
1339 2343 2219 2203 1985 1907 1808 1803 1677 1705 2073 1596 1979 2350 1436 1389 1689 1975 843 831 1755 2181 1265 1335 1976 1821 2040 2027 1701 1769 1797 1209 574 531 393 289 254 291 418 534 663 814 1002
2440 2469 2636 2123 1992 2229 1981 2068 2344 2218 2382 1657 1769 2667 1959 1694 1230 1869 1592 842 741 618 1165 993 1034 1486 1978 2523 2059 2018 1739 1400 585 511 329 172 85 67 100 167 260 314 384
2419 1997 2067 2201 2005 2067 1942 2208 2408 2091 2064 2029 1934 2333 2535 2707 1955 1288 1728 940 1326 1016 770 706 1483 2306 3700 2706 2170 2575 2292 2102 1553 672 403 223 92 9 7 21 26 36 69
2620 2690 2630 2310 2050 2047 1991 2261 1899 1911 1950 2197 2108 2291 1964 1830 2797 2829 2015 3530 2703 2535 1899 3094 2088 1917 2649 3722 3494 3734 2087 1254 1180 588 335 181 89 12 0 0 0 0 0
490 579 959 2105 2029 1901 1957 1912 1630 1376 1737 1740 1857 2047 1928 2017 2363 2881 1827 2816 2863 3089 2268 2165 1355 1836 2015 2439 2595 2725 3035 3006 2126 1268 232 80 0 0 0 0 0 0 0
545 457 431 424 461 449 350 540 1791 1411 1350 1562 1641 1317 1430 1780 1845 1901 2245 2349 2648 2586 2308 2498 1933 2426 3252 2607 2738 2510 2071 3521 2010 1530 1493 953 600 107 0 0 0 0 0
514 406 339 343 225 34 14 79 384 92 114 166 189 148 799 54 0 64 379 1640 1686 2008 2249 2089 2132 2624 2339 1892 2591 2527 2031 1684 2545 1568 1490 1413 1187 1294 1481 0 46 0 0
352 261 175 95 8 0 0 0 0 0 0 1 4 8 14 112 7 0 0 0 0 86 554 617 206 300 1389 567 232 164 175 150 152 214 289 121 129 358 315 94 848 445 53
244 178 91 44 102 0 0 0 0 2 1 11 7 9 1 31 0 0 0 0 0 0 0 0 7 25 466 629 947 975 999 520 453 242 248 78 38 11 44 19 0 0 0
53 17 10 9 13 0 0 0 0 0 3 5 7 9 12 10 0 0 0 0 1 2 1 15 64 36 27 1 13 109 206 211 218 92 412 150 283 341 269 297 8 1 17
52 19 15 15 15 0 0 0 0 0 3 3 9 16 15 14 0 0 0 0 8 8 3 1 0 0 0 0 0 0 4 18 11 7 31 71 131 234 240 132 277 7 3
77 40 13 11 2 1 0 0 0 0 1 0 0 0 0 0 0 0 0 1 8 11 5 6 14 0 2 3 0 2 49 111 104 136 262 53 85 91 83 225 433 457 423
CIN
-2 -7 -2 -5 -24 -38 -20 -3 -36 -27 -14 -3 -16 -26 -5 -8 -15 -5 -16 -18 -4 0 -3 -6 -2 0 0 0 0 0 -14 0 -2 -2 0 0 0 -1 0 0 0 0 0
-20 -1 0 -2 -4 -1 -3 -2 -20 -9 -8 -15 -6 -7 -13 -15 -1 -8 -17 -18 -10 -4 -25 -67 -34 -4 0 0 0 0 -1 0 0 -5 0 0 -2 -1 -1 0 -4 -3 0
-3 0 0 0 -23 -1 -1 0 -4 -13 -11 -36 0 -5 -3 -2 -14 -35 -8 -3 -39 -56 -46 -7 -15 -6 0 0 0 0 -1 0 0 0 -2 0 -1 -1 -1 -1 0 -1 -1
-1 -9 -1 -1 -3 0 -1 0 -1 -5 -20 -15 -2 -1 -1 0 0 0 0 -1 -11 -5 -32 -10 -1 -5 0 0 0 0 0 0 0 0 0 -1 -1 0 0 0 0 0 0
0 -3 -6 -2 -6 -1 -10 0 -2 -7 -10 -19 -39 -3 -16 -5 0 0 -1 -1 -3 -3 0 -18 -6 0 -4 -1 0 0 0 0 0 0 0 0 0 -1 0 0 -1 0 0
-12 0 0 0 -7 -11 0 -12 -3 0 -19 -3 -7 -31 -6 -12 -6 0 0 -1 -2 -1 0 -8 -20 -41 -3 -4 0 0 0 0 0 0 0 0 0 0 0 0 0 0 0
-17 0 0 0 0 -3 -1 -11 0 -1 0 -30 -12 -56 -3 0 -1 0 0 0 0 0 0 -8 0 -8 -25 -8 0 0 0 0 0 0 0 0 0 0 0 0 0 0 0
0 0 -7 0 -9 -11 -1 0 0 0 -10 -11 -1 -1 -1 -2 -1 -3 -2 -1 0 -8 -3 -4 0 -1 -1 -16 -57 -2 0 0 0 0 0 0 -1 0 0 0 0 0 0
0 0 0 0 -1 -25 -2 0 0 0 -1 -10 -12 -6 -4 -5 -23 -7 -3 0 -3 0 -1 -6 -10 -4 -1 -1 -3 -17 -11 -14 -1 0 0 0 0 -1 -1 -1 -2 -1 0
0 -4 -2 0 0 -28 -17 0 0 0 -1 -6 -20 -1 -3 -2 -5 -1 -8 -30 -23 -3 -10 -17 -13 -5 0 0 -2 -11 -54 -70 -36 -12 0 0 0 0 0 0 -4 -10 -6
-32 -17 0 0 0 0 -4 -2 0 0 -1 -1 -1 -6 -1 -1 -3 -19 -1 -1 -6 -3 -1 -5 -15 -8 -3 0 -1 -8 -82 -66 -59 -35 -19 -3 0 0 0 0 0 0 -2
-44 -1 0 0 0 0 0 0 -1 -1 0 0 -11 -1 0 -11 -11 -5 -11 -4 -24 -24 -11 -19 -26 -29 -33 -12 -2 -24 -80 -112 -100 -76 -53 -31 -2 0 0 0 0 0 0
-4 -3 -1 -1 0 0 0 0 0 0 0 0 0 0 -2 -4 -17 -1 -22 -3 -18 -31 -3 -1 -3 -12 -16 -16 -21 -37 -92 -137 -133 -127 -106 -90 -62 -33 -8 0 0 0 0
-18 -1 -1 0 0 0 0 0 0 -2 -7 0 0 0 -4 -13 -25 0 -3 -26 -5 -37 -15 -7 -16 -11 -16 -26 -32 -71 -9 -133 -142 -170 -200 -210 -174 -134 -96 -60 -35 -17 -5
-50 0 -1 0 0 0 0 0 -1 0 -2 -1 0 -1 0 0 -6 -10 -1 -1 -60 -9 -1 -13 -1 -9 -7 -24 -4 -1 -1 -62 -201 -212 -249 -285 -299 -273 -208 -168 -143 -114 -85
0 0 0 -2 -3 -3 0 0 0 -1 -1 -1 -3 -3 -4 -2 -1 -19 -2 0 -1 -1 -4 -7 -5 -60 -13 -7 -59 -4 -1 -16 -199 -225 -278 -347 -400 -403 -345 -296 -271 -252 -223
0 -15 -1 -1 -1 -2 -1 0 0 0 0 0 -1 -1 0 0 -7 -1 -23 -2 -2 -1 0 -1 -3 -3 -2 -6 -2 -2 -1 0 -10 -180 -285 -344 -406 -478 -471 -437 -415 -394 -364
0 -1 0 0 0 0 0 -2 -1 0 0 0 0 0 0 0 0 -5 -7 -12 -15 -18 -24 -8 -2 -23 -6 -2 -1 0 0 0 -1 -112 -295 -356 -413 -489 0 0 0 0 0
-71 -51 -14 0 -1 0 0 0 -1 -6 -4 -5 -1 -1 -2 -4 0 0 -8 -4 -6 -2 -17 -16 -11 -5 -6 -23 -19 -8 -4 -6 -1 -5 -214 -288 0 0 0 0 0 0 0
-74 -75 -76 -66 -41 -30 -50 -30 -1 -1 -2 -2 -3 -7 -4 -1 -1 -8 -2 -1 -1 0 -1 0 0 -3 0 -10 -4 -8 -16 -9 -11 -12 -12 -77 -120 -109 0 0 0 0 0
-80 -100 -109 -103 -114 -177 -48 -252 -56 -137 -117 -84 -76 -81 -7 -56 0 -20 -24 0 0 0 0 -1 0 -1 -3 -2 -1 -1 -2 -2 -1 -13 -9 -1 -2 -1 -26 0 -133 0 0
-150 -159 -169 -174 -214 0 0 0 0 -4 0 0 0 -1 -88 -80 -1 0 0 0 0 -96 -2 -1 -29 -41 -1 -12 -64 -79 -74 -84 -107 -56 -56 -109 -70 -30 -23 -88 -39 -134 -339
-159 -189 -213 -206 -176 0 0 0 0 0 0 0 0 -1 0 -151 0 0 0 0 0 0 0 0 -105 -82 -31 -12 -2 0 0 -12 -15 -54 -40 -95 -78 -131 -92 -103 0 0 0
-168 -91 -112 -60 -22 0 0 0 0 0 0 0 0 0 0 0 0 0 0 0 0 0 -1 -1 -106 -110 -54 -19 -99 -97 -74 -77 -11 -71 -17 -84 -46 -51 -60 -52 -5 -35 -32
-189 -155 0 0 0 0 0 0 0 0 -1 0 0 -1 0 0 0 0 0 0 0 0 0 -30 0 0 0 0 0 0 0 0 0 0 -12 -171 -115 -75 -53 -112 -61 -28 -128
-142 -193 0 0 -1 -2 0 0 0 0 0 0 0 0 0 0 0 0 0 0 0 -3 -15 -3 0 0 -1 -33 -2 -16 0 -87 -95 -86 -42 -238 -148 -99 -177 -47 -15 -39 -43
Wind_Speed
3 3 2 6 4 8 7 6 4 2 3 4 7 4 4 5 8 3 7 16 13 11 12 12 11 10 10 9 9 10 10 8 11 9 8 7 7 7 6 6 4 3 1
2 3 4 4 6 8 7 4 3 1 0 2 7 5 7 2 6 7 6 10 14 12 14 12 9 9 9 10 11 10 9 10 9 9 8 8 8 6 5 6 5 4 4
4 6 5 6 5 5 6 4 5 4 4 5 10 7 9 8 9 6 7 6 12 14 12 12 11 10 10 10 10 11 11 10 10 10 9 9 7 8 8 6 6 7 6
9 5 6 7 6 5 7 5 3 4 4 3 6 7 5 9 9 11 10 8 7 12 14 14 13 12 11 10 11 12 12 12 11 11 10 10 10 8 9 7 8 8 7
10 7 7 7 6 2 4 5 4 6 2 5 6 6 8 6 8 7 9 11 9 8 9 19 14 13 14 13 12 13 12 11 11 12 12 12 12 11 11 10 10 9 9
12 9 7 7 6 5 5 3 5 4 4 7 7 5 2 4 6 6 8 8 10 10 11 7 12 12 15 15 14 14 15 14 13 13 13 11 13 12 12 11 11 11 10
11 8 6 6 8 6 6 6 4 5 4 7 4 4 2 3 7 9 10 8 7 8 11 9 9 9 11 18 16 14 16 16 16 15 14 13 13 13 12 12 12 12 12
11 9 6 7 8 4 6 5 6 5 4 4 2 4 1 1 2 5 7 7 10 8 6 9 12 10 7 11 15 18 17 16 16 17 16 15 15 15 14 14 13 14 14
10 8 9 7 7 5 6 7 7 6 4 2 5 2 2 2 4 3 4 7 6 8 8 8 11 11 12 9 13 18 20 18 18 17 17 17 17 16 16 15 15 15 15
8 6 9 7 7 5 2 7 7 7 5 3 2 4 4 2 2 4 4 2 7 8 6 7 6 7 13 10 12 12 25 23 22 21 19 19 19 19 18 17 17 17 17
6 9 11 9 8 7 7 5 6 7 5 3 5 1 3 2 6 3 3 6 5 7 8 8 7 10 9 10 10 11 14 20 19 20 20 21 21 20 21 20 20 19 19
7 10 9 8 7 8 7 8 5 6 8 5 4 3 2 2 4 1 1 6 9 5 8 9 8 6 10 9 12 6 17 19 19 19 19 20 21 22 22 22 22 22 22
3 8 7 6 9 8 8 7 8 8 8 7 6 5 4 5 3 4 4 2 3 4 5 7 6 8 6 7 7 11 15 15 15 16 16 17 19 20 21 22 23 23 23
5 4 7 8 8 9 8 7 7 7 7 8 8 6 5 6 4 5 2 1 1 1 2 2 5 6 5 6 5 15 11 15 16 17 16 17 18 19 20 20 21 22 22
6 5 7 7 9 8 8 9 7 9 6 8 9 7 7 6 7 8 4 5 6 4 5 5 4 4 5 4 7 8 10 13 17 16 16 17 17 18 19 20 20 19 20
5 0 3 5 5 5 8 7 7 7 7 6 7 9 8 6 8 4 8 6 6 6 3 6 7 6 5 2 7 7 8 2 16 16 16 16 16 17 18 19 19 20 21
3 1 3 2 3 3 4 5 7 7 8 8 10 4 9 8 7 9 4 6 6 6 6 5 7 9 8 5 5 7 9 10 9 20 20 19 18 18 18 18 19 19 20
7 7 5 2 4 4 3 3 4 3 6 6 9 7 7 6 8 9 8 6 5 8 8 8 8 1 6 9 9 8 9 10 11 12 20 18 18 19 19 19 19 19 19
2 5 4 5 4 2 2 2 1 2 4 5 5 7 7 6 7 6 6 5 6 4 4 4 8 8 7 5 4 6 6 8 10 10 18 19 20 19 18 17 18 18 18
3 3 3 3 3 2 2 1 4 3 1 3 3 2 3 3 4 4 4 5 4 5 5 5 6 6 4 6 4 4 6 5 8 11 11 10 13 18 19 18 19 18 18
4 2 2 3 1 1 9 9 7 3 3 4 4 3 8 6 6 6 6 3 3 4 4 5 6 5 7 7 5 5 8 8 7 9 9 8 8 8 9 17 17 21 17
3 3 3 1 1 9 11 11 9 5 1 3 3 4 3 10 6 6 3 1 3 7 8 8 9 9 7 8 7 8 9 9 10 9 7 8 8 8 9 7 10 13 15
3 2 2 2 6 7 11 9 11 7 4 5 4 5 6 10 10 7 5 7 8 8 6 5 8 8 9 8 8 8 8 9 9 10 10 11 10 11 10 11 10 10 12
1 1 2 2 6 6 9 10 11 6 2 1 2 3 4 6 10 9 8 8 8 5 6 6 6 5 6 7 7 7 8 10 11 11 11 12 10 10 9 9 15 14 13
4 3 2 4 5 5 9 11 11 4 3 2 2 4 4 4 10 10 8 8 8 7 7 4 3 3 8 9 7 6 9 10 11 10 10 10 9 9 9 8 9 5 13
4 4 3 3 3 7 7 9 9 6 3 4 3 10 14 9 7 6 6 7 7 5 10 10 6 9 6 7 8 7 8 7 9 11 1 7 9 10 10 10 10 5 2
Wind_Direction
222 213 223 215 212 236 251 247 82 63 276 327 303 27 275 147 187 171 137 158 173 169 160 157 156 166 177 179 177 182 178 176 170 178 176 166 193 179 176 179 190 195 214
220 216 256 261 259 250 212 224 131 238 275 198 251 231 246 93 202 233 189 166 175 168 183 187 177 170 183 183 186 190 188 183 182 183 181 188 203 198 199 202 216 237 256
282 270 231 253 220 233 273 228 158 116 205 221 254 230 200 189 185 215 240 188 184 200 204 200 199 196 194 191 199 201 196 199 196 194 196 204 212 207 226 226 238 246 258
257 244 249 247 236 236 204 223 184 153 206 237 246 241 185 193 203 194 216 193 185 194 200 213 199 199 201 205 201 203 207 202 202 205 201 209 214 213 217 236 255 268 280
248 245 228 253 233 237 283 204 210 183 158 251 233 232 181 188 182 178 202 210 175 215 193 184 201 201 205 212 218 209 212 206 211 209 216 217 217 217 219 223 237 248 261
248 240 240 243 262 187 224 253 229 196 175 222 240 130 254 178 157 171 186 205 176 202 198 205 192 205 207 218 217 214 212 212 215 221 220 225 221 222 225 227 229 236 245
245 237 255 244 235 178 224 245 215 253 264 229 127 336 217 200 168 172 165 183 221 189 210 168 197 208 190 205 215 216 214 217 216 221 225 223 224 224 227 231 236 239 244
226 233 236 234 231 275 209 198 211 233 277 272 152 186 138 196 144 273 150 169 193 207 198 223 199 222 214 192 209 210 210 217 220 218 224 223 221 226 229 231 234 238 241
223 227 233 231 205 245 212 195 215 217 234 275 17 105 194 212 131 241 228 176 160 199 189 203 206 202 210 217 183 199 207 209 217 225 226 224 224 224 228 231 234 236 240
222 222 241 217 211 232 222 198 216 239 222 215 271 184 239 334 187 136 200 286 162 190 194 223 217 211 195 216 223 193 196 207 213 217 222 228 226 225 228 232 234 236 237
217 219 220 197 213 223 259 221 194 214 214 222 218 213 231 334 287 126 166 185 258 196 197 198 184 199 217 221 219 219 170 203 212 219 222 226 229 228 229 234 237 239 240
233 209 221 199 213 207 221 207 238 205 242 237 94 239 202 199 228 187 281 173 199 178 188 197 189 191 192 205 222 215 190 187 199 211 219 225 231 236 239 242 244 242 242
253 176 201 209 206 200 210 223 219 207 218 240 231 222 244 254 231 237 211 232 184 180 201 199 195 193 191 193 207 219 179 194 199 205 213 221 228 235 240 244 247 250 253
227 231 220 200 223 209 206 209 214 231 203 218 251 247 210 271 285 247 173 219 97 327 334 263 202 190 188 185 181 197 218 190 199 204 211 219 225 231 238 243 247 249 250
266 214 225 216 196 205 213 216 238 219 241 213 208 233 248 224 261 288 231 256 148 212 215 206 220 244 185 195 194 214 230 191 204 208 214 220 225 230 235 240 244 246 249
271 302 206 246 222 193 201 213 233 264 237 226 221 196 246 227 220 247 271 231 242 276 250 197 206 158 263 115 153 207 252 260 198 208 216 222 227 231 235 236 238 240 242
169 150 271 239 228 230 236 210 226 224 238 237 266 228 212 259 265 229 211 254 273 267 257 226 183 180 179 205 247 233 233 227 222 202 208 213 219 225 230 235 237 238 239
173 188 158 165 160 226 191 218 243 237 236 238 244 253 258 244 261 295 297 349 323 339 342 333 302 74 211 201 219 239 263 280 285 213 207 209 216 221 222 225 230 233 236
74 79 76 65 99 92 149 208 229 249 264 267 257 262 256 246 245 244 272 294 304 313 302 302 286 308 318 324 348 265 285 301 289 262 200 209 221 221 223 224 228 230 234
89 83 59 65 66 115 123 71 149 154 99 152 156 238 287 280 253 265 245 238 247 249 247 249 256 269 270 280 288 280 290 256 282 289 292 220 217 220 225 228 231 230 230
101 88 120 86 63 47 34 6 339 320 355 340 353 343 99 87 73 39 337 6 298 275 262 245 246 243 245 239 219 242 248 270 224 249 265 263 291 284 240 232 243 229 227
114 111 103 89 257 68 23 6 339 323 327 295 320 337 336 163 161 141 102 50 320 312 311 312 301 314 336 331 313 324 329 322 311 318 306 287 291 285 299 282 217 225 215
122 139 145 160 66 67 16 2 348 300 333 30 335 338 309 60 41 22 9 262 243 224 240 287 282 286 308 342 337 318 308 319 302 312 311 294 299 298 308 298 299 226 207
177 203 185 167 122 75 7 4 343 290 294 34 315 304 17 49 34 5 335 307 301 300 247 251 283 305 303 331 319 313 304 286 274 261 249 255 263 259 263 257 238 232 215
162 191 168 176 132 86 22 9 350 299 63 298 279 17 16 85 31 12 323 308 303 290 266 182 55 321 283 266 263 291 279 279 284 291 297 301 300 303 308 308 319 276 229
176 126 179 143 60 128 52 19 355 309 288 290 205 107 65 63 43 10 323 294 277 355 355 340 302 265 264 262 242 251 298 313 306 310 1 355 318 307 300 308 312 326 186